Location: Red Deer
(52.2681°N, 113.8112°W)
Time: 17:22:06
(UTC-07:00)

Tiangong - Pass Details

Date: 04 December 2022
Orbit: 383 x 386 km, 41.5° (Epoch: 31 January)

Event Time Altitude Azimuth Distance (km) Brightness Sun altitude
Rises 18:44:45 0° 236° (WSW) 2,252 2.9 -20.3°
Reaches altitude 10° 18:47:46 10° 205° (SSW) 1,402 1.1 -20.8°
Maximum altitude 18:49:08 12° 179° (S) 1,277 0.6 -21.0°
Enters shadow 18:49:12 12° 177° (S) 1,277 0.6 -21.0°
